When you browse on this site, cookies collect data to enhance your experience and personalize the content and advertising you see.
Visit our Privacy Policy to learn more. By continuing to use the site, you agree to this use of cookies and data.
  • In Hungary
  • List of Countries
  • For 7 days
  • Water Temperature
  • Satellite Maps
  • Weather Map
  • News
  • Weather Widgets
  • user-avatar
    Login

    Hourly Weather Podlesie

    Today, 24 January, Thursday

    Time Temperature Precipitation Wind Pressure Humidity
    00:00 -11°C° 0 mm 5 mps 733 mmHg 81%
    01:00 -11°C° 0 mm 5 mps 733 mmHg 82%
    02:00 -11°C° 0 mm 5 mps 734 mmHg 82%
    03:00 -11°C° 0 mm 5 mps 734 mmHg 81%
    04:00 -11°C° 0 mm 5 mps 734 mmHg 81%
    05:00 -11°C° 0 mm 5 mps 734 mmHg 81%
    06:00 -11°C° 0 mm 5 mps 734 mmHg 81%
    07:00 -11°C° 0 mm 5 mps 734 mmHg 80%
    08:00 -11°C° 0 mm 5 mps 734 mmHg 79%
    09:00 -10°C° 0 mm 5 mps 735 mmHg 78%
    10:00 -10°C° 0 mm 5 mps 735 mmHg 78%
    11:00 -10°C° 0 mm 5 mps 735 mmHg 77%
    12:00 -8°C° 0 mm 5 mps 735 mmHg 76%
    13:00 -8°C° 0 mm 5 mps 735 mmHg 76%
    14:00 -8°C° 0 mm 5 mps 735 mmHg 77%
    15:00 -8°C° 0 mm 5 mps 735 mmHg 78%
    16:00 -8°C° 0 mm 5 mps 735 mmHg 78%
    17:00 -8°C° 0 mm 5 mps 735 mmHg 79%
    18:00 -9°C° 0 mm 6 mps 735 mmHg 80%
    19:00 -9°C° 0 mm 6 mps 735 mmHg 81%
    20:00 -10°C° 0 mm 6 mps 735 mmHg 81%
    21:00 -10°C° 0 mm 5 mps 735 mmHg 81%
    22:00 -10°C° 0 mm 5 mps 735 mmHg 82%
    23:00 -10°C° 0.3 mm 5 mps 735 mmHg 84%

    Tomorrow, 25 January, Friday

    Time Temperature Precipitation Wind Pressure Humidity
    00:00 -10°C° 0.3 mm 5 mps 735 mmHg 87%
    01:00 -10°C° 0.3 mm 5 mps 735 mmHg 89%
    02:00 -9°C° 0.2 mm 4 mps 735 mmHg 88%
    03:00 -9°C° 0.2 mm 4 mps 735 mmHg 88%
    04:00 -8°C° 0.2 mm 3 mps 735 mmHg 88%
    05:00 -8°C° 0.1 mm 3 mps 735 mmHg 88%
    06:00 -8°C° 0.1 mm 3 mps 735 mmHg 89%
    07:00 -8°C° 0.1 mm 3 mps 735 mmHg 89%
    08:00 -7°C° 0.3 mm 2 mps 736 mmHg 89%
    09:00 -7°C° 0.3 mm 2 mps 736 mmHg 88%
    10:00 -7°C° 0.3 mm 2 mps 736 mmHg 88%
    11:00 -4°C° 0.1 mm 1 mps 736 mmHg 86%
    12:00 -4°C° 0.1 mm 1 mps 736 mmHg 84%
    13:00 -4°C° 0.1 mm 1 mps 736 mmHg 82%
    14:00 -4°C° 0.1 mm 1 mps 737 mmHg 83%
    15:00 -6°C° 0.1 mm 2 mps 737 mmHg 85%
    16:00 -6°C° 0.1 mm 2 mps 737 mmHg 87%
    17:00 -6°C° 0 mm 2 mps 738 mmHg 88%
    18:00 -6°C° 0 mm 2 mps 738 mmHg 89%
    19:00 -7°C° 0 mm 3 mps 738 mmHg 90%
    20:00 -7°C° 0 mm 3 mps 739 mmHg 90%
    21:00 -8°C° 0 mm 3 mps 739 mmHg 89%
    22:00 -8°C° 0 mm 3 mps 739 mmHg 89%
    23:00 -8°C° 0 mm 3 mps 739 mmHg 88%

    Day after tomorrow, 26 January, Saturday

    Time Temperature Precipitation Wind Pressure Humidity
    00:00 -8°C° 0 mm 3 mps 739 mmHg 88%
    01:00 -7°C° 0 mm 3 mps 739 mmHg 87%
    02:00 -8°C° 0 mm 3 mps 739 mmHg 87%
    03:00 -8°C° 0 mm 3 mps 739 mmHg 87%
    04:00 -8°C° 0 mm 3 mps 739 mmHg 87%
    05:00 -8°C° 0 mm 3 mps 739 mmHg 88%
    06:00 -9°C° 0 mm 3 mps 739 mmHg 89%
    07:00 -9°C° 0 mm 3 mps 738 mmHg 90%
    08:00 -10°C° 0 mm 4 mps 738 mmHg 88%
    09:00 -9°C° 0 mm 4 mps 737 mmHg 86%
    10:00 -10°C° 0 mm 5 mps 737 mmHg 84%
    11:00 -7°C° 0 mm 5 mps 736 mmHg 79%
    12:00 -6°C° 0 mm 6 mps 735 mmHg 74%
    13:00 -5°C° 0 mm 6 mps 734 mmHg 69%
    14:00 -6°C° 0.3 mm 7 mps 734 mmHg 76%
    15:00 -6°C° 0.3 mm 7 mps 733 mmHg 83%
    16:00 -4°C° 0.3 mm 7 mps 732 mmHg 90%
    17:00 -4°C° 0.3 mm 7 mps 732 mmHg 90%
    18:00 -3°C° 0.3 mm 7 mps 732 mmHg 90%
    19:00 -3°C° 0.3 mm 7 mps 732 mmHg 90%
    20:00 -2°C° 0.1 mm 7 mps 732 mmHg 90%
    21:00 -2°C° 0.1 mm 7 mps 732 mmHg 91%
    22:00 -2°C° 0.1 mm 6 mps 732 mmHg 91%
    23:00 -2°C° 0.1 mm 6 mps 732 mmHg 92%

    27 January, Sunday

    Time Temperature Precipitation Wind Pressure Humidity
    00:00 -2°C° 0.1 mm 6 mps 732 mmHg 93%
    01:00 -1°C° 0.1 mm 5 mps 733 mmHg 93%
    02:00 -1°C° 0.1 mm 5 mps 732 mmHg 93%
    03:00 -1°C° 0.1 mm 5 mps 732 mmHg 93%
    04:00 -1°C° 0.1 mm 4 mps 732 mmHg 94%
    05:00 -1°C° 0 mm 4 mps 732 mmHg 94%
    06:00 -2°C° 0 mm 4 mps 732 mmHg 94%
    07:00 -1°C° 0 mm 3 mps 731 mmHg 94%
    08:00 -1°C° 0 mm 4 mps 731 mmHg 94%
    09:00 -1°C° 0 mm 4 mps 731 mmHg 94%
    10:00 -1°C° 0 mm 4 mps 731 mmHg 94%
    11:00 0°C° 0 mm 4 mps 730 mmHg 94%
    12:00 0°C° 0 mm 4 mps 730 mmHg 94%
    13:00 +1°C° 0 mm 4 mps 729 mmHg 95%
    14:00 0°C° 0 mm 4 mps 729 mmHg 93%
    15:00 0°C° 0 mm 4 mps 728 mmHg 91%
    16:00 0°C° 0 mm 4 mps 728 mmHg 89%
    17:00 0°C° 0 mm 4 mps 728 mmHg 89%
    18:00 -1°C° 0 mm 4 mps 728 mmHg 89%
    19:00 -1°C° 0 mm 4 mps 728 mmHg 89%
    20:00 -1°C° 0 mm 4 mps 728 mmHg 88%
    21:00 -1°C° 0 mm 3 mps 728 mmHg 88%
    22:00 -1°C° 0 mm 3 mps 728 mmHg 87%
    23:00 -2°C° 0 mm 4 mps 727 mmHg 84%

    28 January, Monday

    Time Temperature Precipitation Wind Pressure Humidity
    00:00 -2°C° 0 mm 4 mps 727 mmHg 82%
    01:00 -2°C° 0 mm 5 mps 727 mmHg 79%
    02:00 -2°C° 0 mm 5 mps 727 mmHg 80%
    03:00 -2°C° 0 mm 5 mps 726 mmHg 80%
    04:00 -3°C° 0 mm 6 mps 726 mmHg 80%
    05:00 -4°C° 0 mm 6 mps 726 mmHg 81%
    06:00 -4°C° 0 mm 6 mps 726 mmHg 81%
    07:00 -4°C° 0 mm 6 mps 726 mmHg 82%
    08:00 -4°C° 0 mm 6 mps 726 mmHg 81%
    09:00 -3°C° 0 mm 7 mps 727 mmHg 81%
    10:00 -3°C° 0 mm 7 mps 727 mmHg 81%
    11:00 -2°C° 0 mm 7 mps 727 mmHg 80%
    12:00 -2°C° 0 mm 7 mps 727 mmHg 80%
    13:00 -1°C° 0 mm 7 mps 727 mmHg 79%
    14:00 -1°C° 0 mm 7 mps 727 mmHg 79%
    15:00 -2°C° 0 mm 6 mps 727 mmHg 79%
    16:00 -2°C° 0 mm 6 mps 727 mmHg 79%
    17:00 -2°C° 0 mm 6 mps 728 mmHg 80%
    18:00 -2°C° 0 mm 6 mps 728 mmHg 81%
    19:00 -2°C° 0 mm 6 mps 728 mmHg 82%
    20:00 -1°C° 0 mm 5 mps 728 mmHg 83%
    21:00 -1°C° 0 mm 5 mps 729 mmHg 84%
    22:00 -1°C° 0 mm 4 mps 729 mmHg 86%
    23:00 -2°C° 0 mm 4 mps 729 mmHg 87%

    29 January, Tuesday

    Time Temperature Precipitation Wind Pressure Humidity
    00:00 -1°C° 0 mm 3 mps 729 mmHg 88%
    01:00 -1°C° 0 mm 3 mps 729 mmHg 90%
    02:00 -1°C° 0 mm 3 mps 729 mmHg 89%
    03:00 -2°C° 0 mm 3 mps 729 mmHg 89%
    04:00 -2°C° 0 mm 3 mps 729 mmHg 89%
    05:00 -2°C° 0 mm 2 mps 729 mmHg 89%
    06:00 -2°C° 0 mm 2 mps 729 mmHg 89%
    07:00 -2°C° 0 mm 2 mps 730 mmHg 89%
    08:00 -2°C° 0 mm 2 mps 730 mmHg 88%
    09:00 -2°C° 0 mm 2 mps 730 mmHg 86%
    10:00 -1°C° 0 mm 2 mps 730 mmHg 84%
    11:00 -1°C° 0 mm 2 mps 730 mmHg 83%
    12:00 -1°C° 0 mm 2 mps 730 mmHg 82%
    13:00 +1°C° 0 mm 2 mps 730 mmHg 81%
    14:00 -1°C° 0 mm 2 mps 730 mmHg 82%
    15:00 +1°C° 0 mm 1 mps 730 mmHg 83%
    16:00 +1°C° 0 mm 1 mps 730 mmHg 84%
    17:00 0°C° 0 mm 1 mps 730 mmHg 85%
    18:00 -2°C° 0 mm 2 mps 730 mmHg 86%
    19:00 -2°C° 0 mm 2 mps 731 mmHg 87%
    20:00 -2°C° 0 mm 3 mps 731 mmHg 86%
    21:00 -4°C° 0 mm 3 mps 731 mmHg 85%
    22:00 -4°C° 0 mm 3 mps 731 mmHg 84%
    23:00 -4°C° 0 mm 4 mps 731 mmHg 82%
    Show more